Location: ?????
(55.6500°N, 37.2500°E)
Time: 14:35:10
(UTC+00:00)

Cosmos 1331 Rocket - Pass Details

Date: 19 May 2025
Orbit: 746 x 773 km, 74.0° (Epoch: 20 June)

Event Time Altitude Azimuth Distance (km) Brightness Sun altitude
Rises 22:47:10 0° 330° (NNW) 3,233 7.9 -12.5°
Reaches altitude 10° 22:49:35 10° 326° (NNW) 2,299 7.0 -12.4°
Maximum altitude 22:54:40 56° 250° (WSW) 897 4.1 -12.1°
Enters shadow 22:59:09 13° 174° (S) 2,073 5.7 -11.9°
